Terminal Aerodrome Forecast
Issued by NWS Kansas City/Pleasant Hill, MO

Home | Current Version | Previous Version | Text Only | Print | Product List | Glossary On
Versions: 1 2 3 4 5 6 7 8 9 10 11 12 13 14 15 16 17 18 19 20
000
FTUS43 KEAX 011500 AAC
TAFMCI
TAF AMD
KMCI 011514Z 0115/0212 17013KT P6SM VCTS SCT050CB OVC080
      TEMPO 0115/0117 2SM -TSRA OVC035CB
     FM011700 20010KT P6SM BKN050
     FM012200 18007KT P6SM VCTS BKN050CB
     FM020400 14006KT 3SM TSRA BR SCT025 OVC040CB=

USA.gov is the U.S. government's official web portal to all federal, state and local government web resources and services.